Location: Biltmore Gardens
(41.6070°N, 83.4666°W)
Time: 13:26:25
(UTC+00:00)

Cosmos 1048 Rocket - Pass Details

Date: 14 July 2020
Orbit: 744 x 791 km, 74.0° (Epoch: 05 August)

Event Time Altitude Azimuth Distance (km) Brightness Sun altitude
Exits shadow 04:26:13 60° 213° (SSW) 881 4.0 -24.5°
Maximum altitude 04:27:11 82° 288° (WNW) 783 4.0 -24.6°
Drops below altitude 10° 04:32:26 10° 18° (NNE) 2,307 7.2 -24.9°
Sets 04:34:48 0° 19° (NNE) 3,229 8.1 -25.0°
